User: anonymous   Login
Location: Ostrava
(49.8330°N, 18.2830°E)
Time: 21:40:34
(UTC+02:00)
Language:

Cosmos 2221 - Orbit

View from above orbital plane
View from above orbital plane
View from above satellite
View from above satellite

Ground track
Ground track

The orbit data is extracted from the following two-line orbital elements,

1 22236U 92080A   16177.56183019  .00000232  00000-0  22789-4 0  9998
2 22236  82.5080  35.9779 0018359 101.7636 258.5642 14.87404695274306
Epoch (UTC): 25 June 2016 13:29:02
Eccentricity: 0.0018359
inclination: 82.5080°
perigee height: 593 km
apogee height: 619 km
right ascension of ascending node: 35.9779°
argument of perigee: 101.7636°
revolutions per day: 14.87404695
mean anomaly at epoch: 258.5642°
orbit number at epoch: 27430

The dashed part of the orbit path shows where the satellite is in the earth's shadow,  

DLR